Iowa Falls, IA

8:14 PM CST on December 15, 2019 (GMT -0600)
Iowa Falls Municipal

Weather History for KIFA - October, 2019

Change the Weather History Date:

Tuesday, October 8, 2019

  Actual Average Record
Temperature  
Mean Temperature 56 °F -  
Max Temperature 70 °F 65 °F 86 °F (2010)
Min Temperature 42 °F 42 °F 22 °F (1976)
Degree Days  
Heating Degree Days 9    
Growing Degree Days 6 (Base 50)    
Moisture  
Dew Point 38 °F    
Average Humidity 54    
Maximum Humidity 80    
Minimum Humidity 25    
Precipitation  
Precipitation 0.00 in - - ()
Sea Level Pressure  
Sea Level Pressure 30.08 in    
Wind  
Wind Speed 9 mph ()    
Max Wind Speed 21 mph    
Max Gust Speed 32 mph    
Visibility 10.0 miles    
Events      
Averages and records for this station are not official NWS values.
T = Trace of Precipitation, MM = Missing Value Source: Averaged Metar Reports

Daily Weather History Graph

Daily Weather History Graph

Search for Another Location

Airport or City:

Astronomy

Oct. 08, 2019 Rise Set
Actual Time 7:17 AM CDT 6:42 PM CDT
Civil Twilight 6:49 AM CDT 7:10 PM CDT
Nautical Twilight 6:17 AM CDT 7:43 PM CDT
Astronomical Twilight 5:44 AM CDT 8:16 PM CDT
Moon 4:49 PM CDT (10/8) 1:59 AM CDT (10/8)
Length of Visible Light 12h 21m
Length of Day
11h 25m
Waxing Gibbous, 78% of the Moon is Illuminated
Oct 8
Waxing Gibbous
Oct 13
Full
Oct 21
Last Quarter
Oct 27
New
Nov 4
First Quarter

Hourly Weather History & Observations

Time (CDT) Temp. Windchill Dew Point Humidity Pressure Visibility Wind Dir Wind Speed Gust Speed Precip Events Conditions
12:15 AM 48.4 °F - 38.8 °F 70% 30.15 in 10.0 mi South 8.1 mph - N/A   Clear
12:35 AM 48.0 °F - 38.7 °F 70% 30.15 in 10.0 mi South 5.8 mph - N/A   Clear
12:55 AM 47.5 °F - 38.3 °F 70% 30.14 in 10.0 mi SSE 8.1 mph - N/A   Clear
1:15 AM 47.3 °F - 38.3 °F 71% 30.14 in 10.0 mi South 6.9 mph - N/A   Clear
1:55 AM 46.8 °F - 37.9 °F 71% 30.14 in 10.0 mi SSE 6.9 mph - N/A   Clear
2:15 AM 47.3 °F - 38.5 °F 71% 30.14 in 10.0 mi SSE 6.9 mph - N/A   Clear
2:35 AM 46.6 °F - 37.8 °F 71% 30.14 in 10.0 mi SSE 4.6 mph - N/A   Clear
2:55 AM 45.7 °F 42.7 °F 37.8 °F 74% 30.14 in 10.0 mi SE 5.8 mph - N/A   Clear
3:15 AM 44.8 °F 41.6 °F 37.8 °F 76% 30.14 in 10.0 mi SSE 5.8 mph - N/A   Clear
3:35 AM 45.5 °F 41.8 °F 37.9 °F 75% 30.14 in 10.0 mi South 6.9 mph - N/A   Clear
3:55 AM 45.0 °F 41.8 °F 37.4 °F 75% 30.14 in 10.0 mi South 5.8 mph - N/A   Clear
4:15 AM 45.5 °F 42.5 °F 37.9 °F 75% 30.14 in 10.0 mi SSE 5.8 mph - N/A   Clear
4:35 AM 45.1 °F 42.8 °F 37.0 °F 73% 30.14 in 10.0 mi SSE 4.6 mph - N/A   Clear
4:55 AM 43.5 °F 40.9 °F 36.9 °F 77% 30.14 in 10.0 mi SSE 4.6 mph - N/A   Clear
5:15 AM 44.6 °F 43.1 °F 37.4 °F 76% 30.14 in 10.0 mi South 3.5 mph - N/A   Clear
5:35 AM 44.6 °F 42.2 °F 37.0 °F 75% 30.14 in 10.0 mi SSE 4.6 mph - N/A   Clear
5:55 AM 43.3 °F 40.7 °F 36.7 °F 77% 30.14 in 10.0 mi SSE 4.6 mph - N/A   Clear
6:15 AM 43.7 °F 42.1 °F 37.4 °F 78% 30.14 in 10.0 mi South 3.5 mph - N/A   Clear
6:35 AM 43.7 °F 41.1 °F 37.2 °F 78% 30.14 in 10.0 mi SSE 4.6 mph - N/A   Clear
6:55 AM 42.8 °F - 36.9 °F 80% 30.14 in 10.0 mi Calm Calm - N/A   Clear
7:15 AM 42.4 °F 39.6 °F 36.7 °F 80% 30.14 in 10.0 mi SSE 4.6 mph - N/A   Clear
7:35 AM 43.3 °F 39.2 °F 37.6 °F 80% 30.13 in 10.0 mi SSE 6.9 mph - N/A   Clear
7:55 AM 45.9 °F 42.9 °F 38.5 °F 75% 30.13 in 10.0 mi South 5.8 mph - N/A   Clear
8:15 AM 47.7 °F - 38.8 °F 71% 30.13 in 10.0 mi SSE 5.8 mph - N/A   Clear
8:35 AM 49.5 °F - 39.2 °F 68% 30.13 in 10.0 mi South 9.2 mph - N/A   Clear
8:55 AM 51.6 °F - 39.9 °F 64% 30.13 in 10.0 mi South 8.1 mph - N/A   Clear
9:15 AM 53.8 °F - 41.0 °F 62% 30.13 in 10.0 mi South 8.1 mph - N/A   Clear
9:35 AM 56.3 °F - 40.6 °F 56% 30.12 in 10.0 mi SSE 10.4 mph - N/A   Clear
9:55 AM 58.8 °F - 40.6 °F 51% 30.12 in 10.0 mi SSE 9.2 mph - N/A   Clear
10:15 AM 61.7 °F - 40.1 °F 45% 30.12 in 10.0 mi South 10.4 mph - N/A   Clear
10:35 AM 63.5 °F - 37.2 °F 38% 30.11 in 10.0 mi South 17.3 mph 21.9 mph N/A   Clear
10:55 AM 65.5 °F - 36.7 °F 35% 30.11 in 10.0 mi South 17.3 mph 21.9 mph N/A   Clear
11:15 AM 66.2 °F - 35.4 °F 32% 30.11 in 10.0 mi South 19.6 mph 25.3 mph N/A   Clear
11:35 AM 66.7 °F - 34.9 °F 31% 30.10 in 10.0 mi South 19.6 mph 27.6 mph N/A   Clear
11:55 AM 67.5 °F - 35.8 °F 31% 30.09 in 10.0 mi SSW 20.7 mph 29.9 mph N/A   Clear
12:15 PM 67.5 °F - 35.2 °F 30% 30.09 in 10.0 mi South 20.7 mph 32.2 mph N/A   Clear
12:35 PM 68.2 °F - 34.2 °F 28% 30.08 in 10.0 mi South 20.7 mph 27.6 mph N/A   Clear
12:55 PM 68.9 °F - 34.2 °F 28% 30.08 in 10.0 mi South 18.4 mph 24.2 mph N/A   Clear
1:15 PM 68.5 °F - 33.8 °F 28% 30.06 in 10.0 mi South 18.4 mph 29.9 mph N/A   Clear
1:35 PM 69.4 °F - 34.7 °F 28% 30.06 in 10.0 mi South 19.6 mph 26.5 mph N/A   Clear
1:55 PM 69.1 °F - 35.2 °F 29% 30.05 in 10.0 mi South 18.4 mph 25.3 mph N/A   Clear
2:15 PM 69.8 °F - 33.8 °F 27% 30.04 in 10.0 mi South 16.1 mph 26.5 mph N/A   Clear
2:35 PM 70.2 °F - 33.4 °F 26% 30.03 in 10.0 mi South 20.7 mph 24.2 mph N/A   Clear
2:55 PM 70.5 °F - 32.7 °F 25% 30.03 in 10.0 mi South 19.6 mph 24.2 mph N/A   Clear
3:15 PM 70.5 °F - 32.5 °F 25% 30.02 in 10.0 mi SSE 17.3 mph 25.3 mph N/A   Clear
3:35 PM 70.5 °F - 33.1 °F 25% 30.01 in 10.0 mi South 17.3 mph 26.5 mph N/A   Clear
3:55 PM 70.7 °F - 34.7 °F 27% 30.01 in 10.0 mi SSE 12.7 mph 23.0 mph N/A   Clear
4:15 PM 69.8 °F - 33.8 °F 27% 30.00 in 10.0 mi SSE 18.4 mph 25.3 mph N/A   Clear
4:35 PM 69.6 °F - 34.3 °F 27% 30.00 in 10.0 mi SSE 13.8 mph 24.2 mph N/A   Clear
4:55 PM 69.4 °F - 35.4 °F 29% 30.00 in 10.0 mi SSE 13.8 mph - N/A   Clear
5:35 PM 68.0 °F - 36.1 °F 31% 30.00 in 10.0 mi SSE 16.1 mph 23.0 mph N/A   Clear
5:55 PM 67.3 °F - 36.3 °F 32% 30.00 in 10.0 mi SSE 13.8 mph 18.4 mph N/A   Clear
6:15 PM 66.0 °F - 37.6 °F 35% 29.99 in 10.0 mi SSE 13.8 mph 19.6 mph N/A   Clear
6:35 PM 64.0 °F - 38.8 °F 39% 29.99 in 10.0 mi SSE 11.5 mph 16.1 mph N/A   Clear
6:55 PM 62.6 °F - 38.8 °F 42% 30.00 in 10.0 mi SSE 10.4 mph - N/A   Clear
7:15 PM 61.9 °F - 38.8 °F 43% 30.00 in 10.0 mi SSE 11.5 mph 16.1 mph N/A   Clear
7:35 PM 59.0 °F - 40.3 °F 50% 30.00 in 10.0 mi SSE 6.9 mph - N/A   Clear
7:55 PM 57.6 °F - 40.5 °F 53% 30.00 in 10.0 mi SSE 8.1 mph - N/A   Clear
8:15 PM 57.2 °F - 41.0 °F 55% 30.01 in 10.0 mi SSE 8.1 mph - N/A   Clear
8:35 PM 56.3 °F - 41.4 °F 57% 30.00 in 10.0 mi SSE 8.1 mph - N/A   Clear
8:55 PM 55.9 °F - 41.4 °F 58% 30.01 in 10.0 mi SSE 9.2 mph - N/A   Clear
9:15 PM 55.4 °F - 41.9 °F 60% 30.01 in 10.0 mi SSE 8.1 mph - N/A   Clear
9:35 PM 54.5 °F - 41.9 °F 62% 30.01 in 10.0 mi SSE 8.1 mph - N/A   Clear
9:55 PM 54.3 °F - 42.1 °F 63% 30.01 in 10.0 mi SSE 8.1 mph - N/A   Clear
10:15 PM 56.3 °F - 41.4 °F 57% 30.01 in 10.0 mi SSE 12.7 mph 16.1 mph N/A   Clear
10:35 PM 55.4 °F - 41.4 °F 59% 30.01 in 10.0 mi SSE 10.4 mph - N/A   Clear
10:55 PM 54.5 °F - 41.4 °F 61% 30.01 in 10.0 mi SSE 10.4 mph - N/A   Clear
11:15 PM 54.5 °F - 41.2 °F 61% 30.01 in 10.0 mi SSE 11.5 mph - N/A   Clear
11:35 PM 54.0 °F - 41.2 °F 62% 30.01 in 10.0 mi SSE 9.2 mph - N/A   Clear
11:55 PM 52.9 °F - 41.4 °F 65% 30.01 in 10.0 mi SSE 10.4 mph - N/A   Clear